Weather in Neritsa

Russia / Komi Republic     65°18′10″N   52°41′22″E
temp.,
°C
wind,
m/s
gust,
m/s
humid.,
%
clouds,
%
prec.,
mm/h
press.,
hPa
HPBL,
m
20 april, tue
tue2000:000wsw3127742 0.0 1029312
03:000w3127376 0.0 1029383
06:00+2w4137315 0.0 1028548
09:00+5wnw5116055 0.0 1028641
12:00+8wnw575590 0.0 1028882
15:00+8wnw366063 0.0 1029879
18:00+4w11835 0.0 102810
21:000sw11935 0.0 102910
21 april, wed
wed2100:00−1ssw11955 0.0 102923
03:00−1ssw12945 0.0 102939
06:00+3ssw257264 0.0 1028134
09:00+8ssw355189 0.0 1028533
12:00+10s4544100 0.0 10261131
15:00+11s464529 0.0 10251343
18:00+9sse3957100 0.0 1023338
21:00+6se41272100 0.0 1022414
22 april, thu
thu2200:00+5sse41374100 0.0 1020555
03:00+5sse51275100 0.0 1018636
06:00+5sse51378100 0.1 10161060
09:00+6s61275100 0.4 10151144
12:00+4s51295100 0.1 1015983
15:00+4s51296100 0.1 1015974
18:00+3s51196100 0.1 10151069
21:00+3ssw51092100 0.2 10161014
23 april, fri
fri2300:00+3s51190100 0.1 1016697
03:00+4ssw51383100 0.1 1017728
06:00+4ssw51184100 0.1 1017899
09:00+6ssw51174100 0.1 10181116
12:00+10sw61060100 0.0 10181529
15:00+11wsw5106198 0.4 10201613
18:00+10sw2666100 0.1 1021180
21:00+8ssw2280100 0.1 102329
24 april, sat
sat2400:00+7sse2286100 0.0 102428
03:00+6sse2283100 0.0 102449
06:00+7s287569 0.0 1025292
09:00+12ssw365456 0.0 1025666
12:00+14s464261 0.0 10241910
15:00+14sse463955 0.0 10231876
18:00+13sse37465 0.0 1022719
21:00+8se28675 0.0 1022180